This demonstration page uses our WeatherBlox Daily Observations layout. Learn more.

Left ArrowRight Arrow

Hourly Observations for April 27, 2017

Temp ( °F °C ) Dew Point ( °F °C ) Humidity (%) Winds ( mph kmh ) Pressure ( in mb ) Visibility ( mi km ) Precip ( " mm )
12:15 am 00:15 Clear 36 2 27 -3 70 70 NNW 3 6 29.83 1010 10 16 0.00 0.00
12:35 am 00:35 Clear 34 1 27 -3 75 75 NW 5 7 29.83 1010 10 16 0.00 0.00
12:55 am 00:55 Clear 34 1 27 -3 75 75 NNW 5 7 29.83 1010 10 16 0.00 0.00
1:15 am 01:15 Clear 34 1 27 -3 75 75 NNW 6 9 29.83 1010 10 16 0.00 0.00
1:35 am 01:35 Clear 32 0 25 -4 75 75 NW 5 7 29.83 1010 10 16 0.00 0.00
1:55 am 01:55 Clear 30 -1 25 -4 80 80 NW 6 9 29.83 1010 10 16 0.00 0.00
2:15 am 02:15 Clear 30 -1 25 -4 80 80 WNW 6 9 29.80 1009 10 16 0.00 0.00
2:35 am 02:35 Clear 30 -1 25 -4 80 80 W 6 9 29.80 1009 10 16 0.00 0.00
2:55 am 02:55 Clear 34 1 25 -4 70 70 W 6 9 29.80 1009 10 16 0.00 0.00
3:15 am 03:15 Clear 34 1 27 -3 75 75 WSW 7 11 29.80 1009 10 16 0.00 0.00
3:35 am 03:35 Clear 34 1 27 -3 75 75 WSW 5 7 29.80 1009 10 16 0.00 0.00
3:55 am 03:55 Clear 34 1 27 -3 75 75 W 7 11 29.80 1009 10 16 0.00 0.00
4:15 am 04:15 Clear 32 0 25 -4 75 75 WNW 6 9 29.80 1009 10 16 0.00 0.00
4:35 am 04:35 Clear 30 -1 25 -4 80 80 WNW 6 9 29.80 1009 10 16 0.00 0.00
4:55 am 04:55 Clear 30 -1 25 -4 80 80 NW 5 7 29.77 1008 10 16 0.00 0.00
5:15 am 05:15 Clear 30 -1 25 -4 80 80 NNW 6 9 29.77 1008 10 16 0.00 0.00
5:35 am 05:35 Clear 30 -1 25 -4 80 80 NW 7 11 29.77 1008 10 16 0.00 0.00
5:55 am 05:55 Clear 28 -2 23 -5 80 80 WNW 6 9 29.80 1009 10 16 0.00 0.00
6:15 am 06:15 Clear 28 -2 25 -4 86 86 W 5 7 29.83 1010 10 16 0.00 0.00
6:35 am 06:35 Clear 28 -2 21 -6 74 74 Calm 29.83 1010 10 16 0.00 0.00
6:55 am 06:55 Sunny 28 -2 23 -5 80 80 Calm 29.83 1010 10 16 0.00 0.00
7:15 am 07:15 Sunny 30 -1 25 -4 80 80 W 3 6 29.80 1009 10 16 0.00 0.00
7:35 am 07:35 Partly Cloudy 30 -1 25 -4 80 80 W 3 6 29.80 1009 10 16 0.00 0.00
7:55 am 07:55 Cloudy 34 1 27 -3 75 75 Calm 29.80 1009 10 16 0.00 0.00
8:15 am 08:15 Cloudy 34 1 27 -3 75 75 NW 5 7 29.80 1009 10 16 0.00 0.00
8:35 am 08:35 Cloudy 36 2 28 -2 75 75 WNW 5 7 29.80 1009 10 16 0.00 0.00
8:55 am 08:55 Cloudy 36 2 28 -2 75 75 W 5 7 29.80 1009 10 16 0.00 0.00
9:15 am 09:15 Mostly Cloudy 37 3 28 -2 70 70 Calm 29.77 1008 10 16 0.00 0.00
9:35 am 09:35 Mostly Cloudy 39 4 28 -2 65 65 Calm 29.77 1008 10 16 0.00 0.00
9:55 am 09:55 Cloudy 39 4 30 -1 70 70 Calm 29.77 1008 10 16 0.00 0.00
10:15 am 10:15 Mostly Cloudy 43 6 30 -1 61 61 NE 3 6 29.74 1007 10 16 0.00 0.00
10:35 am 10:35 Mostly Cloudy 45 7 28 -2 53 53 Calm 29.74 1007 10 16 0.00 0.00
10:55 am 10:55 Cloudy 45 7 28 -2 53 53 Calm 29.74 1007 10 16 0.00 0.00
11:15 am 11:15 Mostly Cloudy 46 8 30 -1 53 53 SE 3 6 29.74 1007 10 16 0.00 0.00
11:35 am 11:35 Mostly Sunny 48 9 30 -1 50 50 Calm 29.74 1007 10 16 0.00 0.00
11:55 am 11:55 Mostly Sunny 48 9 30 -1 50 50 ESE 7 11 29.74 1007 10 16 0.00 0.00
12:15 pm 12:15 Partly Cloudy 50 10 30 -1 47 47 SSE 6 9 29.71 1006 10 16 0.00 0.00
12:35 pm 12:35 Partly Cloudy 52 11 32 0 47 47 S 9 15 29.71 1006 10 16 0.00 0.00
12:55 pm 12:55 Mostly Sunny 52 11 30 -1 44 44 SSE 7 11 29.71 1006 10 16 0.00 0.00
1:15 pm 13:15 Sunny 54 12 30 -1 41 41 SSE 7 11 29.71 1006 10 16 0.00 0.00
1:35 pm 13:35 Mostly Sunny 54 12 30 -1 41 41 SE 10 17 29.68 1005 10 16 0.00 0.00
1:55 pm 13:55 Mostly Cloudy 54 12 30 -1 41 41 SE 7 11 29.68 1005 10 16 0.00 0.00
2:15 pm 14:15 Mostly Cloudy 54 12 32 0 44 44 SE 12 19 29.68 1005 10 16 0.00 0.00
2:35 pm 14:35 Mostly Cloudy 52 11 34 1 50 50 SE 12 19 29.68 1005 10 16 0.00 0.00
2:55 pm 14:55 Cloudy 48 9 37 3 66 66 SE 10 17 29.68 1005 10 16 0.00 0.00
3:15 pm 15:15 Cloudy 50 10 37 3 62 62 ESE 12 19 29.65 1004 10 16 0.00 0.00
3:35 pm 15:35 Cloudy 52 11 36 2 54 54 ESE 9 15 29.65 1004 10 16 0.01 0.25
3:55 pm 15:55 Cloudy 52 11 36 2 54 54 ESE 8 13 29.65 1004 10 16 0.01 0.25
4:15 pm 16:15 Cloudy 52 11 36 2 54 54 ESE 10 17 29.65 1004 10 16 0.00 0.00
4:35 pm 16:35 Cloudy 54 12 36 2 51 51 ESE 10 17 29.65 1004 10 16 0.00 0.00
4:55 pm 16:55 Cloudy 54 12 36 2 51 51 SSE 17 28 29.65 1004 10 16 0.00 0.00
5:15 pm 17:15 Mostly Cloudy 55 13 36 2 47 47 SE 15 24 29.62 1003 10 16 0.00 0.00
5:35 pm 17:35 Mostly Sunny 54 12 34 1 47 47 SE 15 24 29.65 1004 10 16 0.00 0.00
5:55 pm 17:55 Mostly Cloudy 55 13 36 2 47 47 SE 20 31 29.62 1003 10 16 0.00 0.00
6:15 pm 18:15 Cloudy 55 13 36 2 47 47 SSE 14 22 29.62 1003 10 16 0.00 0.00
6:35 pm 18:35 Cloudy 54 12 36 2 51 51 SSE 21 33 29.65 1004 10 16 0.00 0.00
6:55 pm 18:55 Cloudy 54 12 36 2 51 51 S 18 30 29.65 1004 10 16 0.00 0.00
7:15 pm 19:15 Cloudy 52 11 37 3 58 58 SSE 21 33 29.65 1004 10 16 0.00 0.00
7:35 pm 19:35 Cloudy 48 9 37 3 66 66 SSE 16 26 29.68 1005 10 16 0.00 0.00
7:55 pm 19:55 Cloudy 46 8 39 4 76 76 SSE 15 24 29.71 1006 10 16 0.00 0.00
8:15 pm 20:15 Cloudy 46 8 39 4 76 76 SSE 14 22 29.71 1006 10 16 0.00 0.00
8:35 pm 20:35 Cloudy 46 8 39 4 76 76 SE 13 20 29.71 1006 10 16 0.00 0.00
8:55 pm 20:55 Cloudy 46 8 39 4 76 76 SE 15 24 29.71 1006 10 16 0.00 0.00
9:15 pm 21:15 Cloudy 46 8 39 4 76 76 ESE 13 20 29.71 1006 10 16 0.00 0.00
9:35 pm 21:35 Cloudy 46 8 39 4 76 76 ESE 12 19 29.74 1007 10 16 0.00 0.00
9:55 pm 21:55 Cloudy 46 8 39 4 76 76 SE 10 17 29.74 1007 10 16 0.00 0.00
10:15 pm 22:15 Cloudy 46 8 39 4 76 76 ESE 13 20 29.74 1007 10 16 0.00 0.00
10:35 pm 22:35 Cloudy 46 8 39 4 76 76 ESE 12 19 29.74 1007 10 16 0.00 0.00
10:55 pm 22:55 Cloudy 46 8 39 4 76 76 ESE 12 19 29.74 1007 10 16 0.00 0.00
11:15 pm 23:15 Cloudy 46 8 39 4 76 76 ESE 13 20 29.74 1007 10 16 0.00 0.00
11:35 pm 23:35 Cloudy 46 8 39 4 76 76 ESE 13 20 29.74 1007 10 16 0.00 0.00
11:55 pm 23:55 Cloudy 46 8 39 4 76 76 ESE 10 17 29.74 1007 10 16 0.00 0.00

Powered by AerisWeather